Skip Page Navigation
NASA JPL Caltech
NASA Logo - Jet Propulsion Laboratory + View the NASA Portal
+ Center for Near-Earth Object Studies
JPL Home Earth Solar System Stars & Galaxies Technology
JPL Solar System Dynamics
BODIES ORBITS EPHEMERIDES TOOLS PHYSICAL DATA DISCOVERY FAQ SITE MAP
IMPORTANT: The SSD Announcement email list is now available. Major changes are coming in the near future, including possible hostname and/or URL changes. To be notified of such changes, subscribe to this email list.

Please visit this page for more details.


JPL Small-Body Database Browser
Search: [ help ]  
347081 (2010 GW35)
Classification: Main-belt Asteroid          SPK-ID: 2347081
Ephemeris | Orbit Diagram | Orbital Elements | Mission Design | Physical Parameters | Discovery Circumstances | Close-Approach Data ]

[ show orbit diagram ]
Orbital Elements at Epoch 2459000.5 (2020-May-31.0) TDB
Reference: JPL 9 (heliocentric ecliptic J2000)
 Element Value Uncertainty (1-sigma)   Units 
e .1287183765578195 5.4183e-08  
a 2.718112075701496 3.2987e-08 au
q 2.368241102014994 1.4641e-07 au
i 5.749539248400363 7.027e-06 deg
node 71.18603894182189 5.7822e-05 deg
peri 278.7304567590327 6.3666e-05 deg
M 306.7895208232183 2.9903e-05 deg
tp 2459242.432456976806
(2021-Jan-27.93245698)
0.00013825 TDB
period 1636.814512086828
4.48
2.9797e-05
8.158e-08
d
yr
n .219939398961599 4.0038e-09 deg/d
Q 3.067983049387997 3.7233e-08 au
  Orbit Determination Parameters
   # obs. used (total)      174  
   data-arc span      5636 days (15.43 yr)  
   first obs. used      2003-11-19  
   last obs. used      2019-04-25  
   planetary ephem.      DE431  
   SB-pert. ephem.      SB431-N16  
   condition code      0  
   norm. resid. RMS      .58129  
   source      ORB  
   producer      Otto Matic  
   solution date      2020-Feb-25 23:24:17  

Additional Information
 Earth MOID = 1.37076 au 
 Jupiter MOID = 2.36288 au 
 T_jup = 3.341 
[ show covariance matrix ]

Ephemeris | Orbit Diagram | Orbital Elements | Mission Design | Physical Parameters | Discovery Circumstances | Close-Approach Data ]

Physical Parameter Table
Parameter Symbol Value Units Sigma Reference Notes
absolute magnitude H 16.6   n/a MPO339116  

347081 (2010 GW35)          Discovered 2003-Nov-19 by Spacewatch at Kitt Peak
Reference: 20121128/Numbers.arcLast Updated: 2012-12-03

[ show close-approach data ]
Alternate Designations
 2010 GW35 = 2008 YH61 
Ephemeris | Orbit Diagram | Orbital Elements | Mission Design | Physical Parameters | Discovery Circumstances | Close-Approach Data ]
ABOUT SSD CREDITS/AWARDS PRIVACY/COPYRIGHT GLOSSARY LINKS
FirstGov 2020-Feb-28 10:17 UT
(server date/time)  
NASA Home Page
Site Manager:   Ryan S. Park
Webmaster  Alan B. Chamberlin